Voltar ao catálogo

THORAD AGENA D DEB

AtivoPO
NORAD 4611·DEBRIS·🇺🇸 United States

Lançado Apr 8, 1970 de Vandenberg Space Force Base

Loading…

Próximas Passagens (próximas 24 horas)

TLE

AtualizadoSource: Space-Track

Época: Sep 14, 2026, 21:50 UTC

1 04611U 70025P   26257.91025158  .00000250  00000-0  17913-3 0  9990
2 04611  99.8762 269.4241 0123037 223.6106 135.5282 14.03866505868285

Acompanhe THORAD AGENA D DEB em tempo real com AllMySat

Download on the App Store